| time (UTC) | temp F | wind direction | speed MPH | gust MPH | rain 1hr in | rain 24hr in | rain mn in | humidity % | barometer mb |
| 20260905223057 | 79 | 189 | 5.0 | 8.0 | 0.44 | 0.49 | 0.49 | 93 | 1015.3 |
| 20260905222027 | 83 | 126 | 6.0 | 8.0 | 0.07 | 0.12 | 0.12 | 87 | 1014.1 |
| 20260905221034 | 88 | 181 | 6.0 | 10.0 | 0.00 | 0.05 | 0.05 | 73 | 1013.8 |
| 20260905220044 | 90 | 0 | 0.0 | 2.0 | 0.00 | 0.05 | 0.05 | 71 | 1013.3 |
| 20260905215112 | 91 | 23 | 0.0 | 1.0 | 0.00 | 0.05 | 0.05 | 69 | 1013.2 |
| 20260905214022 | 92 | 49 | 1.0 | 3.0 | 0.00 | 0.05 | 0.05 | 69 | 1013.3 |
| 20260905213030 | 93 | 0.0 | 0.0 | 0.00 | 0.05 | 0.05 | 68 | 1013.1 | |
| 20260905212021 | 92 | 99 | 2.0 | 5.0 | 0.00 | 0.05 | 0.05 | 68 | 1013.1 |
| 20260905211047 | 92 | 109 | 3.0 | 4.0 | 0.00 | 0.05 | 0.05 | 68 | 1013.0 |
| 20260905210035 | 90 | 359 | 2.0 | 3.0 | 0.00 | 0.05 | 0.05 | 70 | 1013.1 |
| 20260905205024 | 90 | 142 | 2.0 | 4.0 | 0.00 | 0.05 | 0.05 | 70 | 1013.2 |
| 20260905204032 | 90 | 132 | 1.0 | 2.0 | 0.00 | 0.05 | 0.05 | 73 | 1013.2 |
| 20260905203022 | 91 | 151 | 3.0 | 5.0 | 0.00 | 0.05 | 0.05 | 70 | 1013.2 |
| 20260905202029 | 92 | 45 | 0.0 | 2.0 | 0.00 | 0.05 | 0.05 | 70 | 1013.4 |
| 20260905201019 | 94 | 356 | 2.0 | 5.0 | 0.00 | 0.05 | 0.05 | 70 | 1013.4 |
| 20260905200047 | 92 | 21 | 3.0 | 5.0 | 0.00 | 0.05 | 0.05 | 69 | 1013.4 |
| 20260905195055 | 93 | 310 | 3.0 | 4.0 | 0.00 | 0.05 | 0.05 | 66 | 1013.5 |
| 20260905194024 | 93 | 350 | 3.0 | 5.0 | 0.00 | 0.05 | 0.05 | 64 | 1013.7 |
| 20260905193052 | 94 | 26 | 3.0 | 4.0 | 0.00 | 0.05 | 0.05 | 63 | 1014.0 |
| 20260905192022 | 94 | 110 | 2.0 | 5.0 | 0.00 | 0.05 | 0.05 | 62 | 1014.0 |
| 20260905191030 | 94 | 108 | 2.0 | 5.0 | 0.00 | 0.05 | 0.05 | 63 | 1014.1 |
| 20260905190019 | 93 | 44 | 2.0 | 4.0 | 0.00 | 0.05 | 0.05 | 62 | 1014.5 |
| 20260905185027 | 93 | 352 | 3.0 | 4.0 | 0.00 | 0.05 | 0.05 | 63 | 1014.6 |
| 20260905184135 | 92 | 19 | 3.0 | 4.0 | 0.00 | 0.05 | 0.05 | 67 | 1014.8 |
| 20260905183108 | 91 | 62 | 2.0 | 4.0 | 0.00 | 0.05 | 0.05 | 69 | 1014.9 |
| 20260905182032 | 91 | 128 | 3.0 | 5.0 | 0.00 | 0.05 | 0.05 | 71 | 1015.0 |
| 20260905181022 | 91 | 69 | 2.0 | 3.0 | 0.00 | 0.05 | 0.05 | 72 | 1015.1 |
| 20260905180051 | 89 | 0.0 | 0.0 | 0.00 | 0.05 | 0.05 | 75 | 1015.1 | |
| 20260905175020 | 87 | 0.0 | 0.0 | 0.00 | 0.05 | 0.05 | 76 | 1015.3 | |
| 20260905174027 | 85 | 0.0 | 0.0 | 0.00 | 0.05 | 0.05 | 83 | 1015.3 | |
| 20260905173036 | 84 | 0.0 | 0.0 | 0.00 | 0.05 | 0.05 | 84 | 1015.5 | |
| 20260905172025 | 83 | 182 | 2.0 | 4.0 | 0.00 | 0.05 | 0.05 | 85 | 1015.4 |
| 20260905171053 | 82 | 201 | 1.0 | 3.0 | 0.00 | 0.05 | 0.05 | 86 | 1015.6 |
| 20260905170023 | 82 | 165 | 3.0 | 4.0 | 0.00 | 0.05 | 0.05 | 86 | 1015.8 |
| 20260905165030 | 82 | 169 | 4.0 | 6.0 | 0.00 | 0.05 | 0.05 | 85 | 1015.9 |
| 20260905164020 | 82 | 172 | 3.0 | 5.0 | 0.00 | 0.05 | 0.05 | 85 | 1015.9 |
| 20260905163028 | 81 | 163 | 4.0 | 5.0 | 0.00 | 0.05 | 0.05 | 86 | 1015.9 |
| 20260905162036 | 82 | 146 | 4.0 | 7.0 | 0.00 | 0.05 | 0.05 | 84 | 1016.1 |
| 20260905161025 | 85 | 155 | 6.0 | 8.0 | 0.00 | 0.05 | 0.05 | 80 | 1016.2 |
| 20260905160033 | 86 | 117 | 1.0 | 2.0 | 0.00 | 0.05 | 0.05 | 80 | 1016.1 |
| 20260905155023 | 88 | 32 | 1.0 | 3.0 | 0.00 | 0.05 | 0.05 | 81 | 1015.8 |
| 20260905154031 | 87 | 40 | 2.0 | 4.0 | 0.00 | 0.05 | 0.05 | 83 | 1015.7 |
| 20260905153040 | 88 | 28 | 3.0 | 5.0 | 0.00 | 0.05 | 0.05 | 81 | 1015.7 |
| 20260905152029 | 87 | 58 | 1.0 | 5.0 | 0.00 | 0.05 | 0.05 | 84 | 1015.7 |
| 20260905151037 | 86 | 68 | 1.0 | 3.0 | 0.00 | 0.05 | 0.05 | 85 | 1015.6 |
| 20260905150025 | 85 | 28 | 2.0 | 3.0 | 0.00 | 0.05 | 0.05 | 88 | 1015.5 |
| 20260905145033 | 84 | 354 | 2.0 | 4.0 | 0.00 | 0.05 | 0.05 | 89 | 1015.6 |
| 20260905144023 | 84 | 78 | 1.0 | 3.0 | 0.00 | 0.05 | 0.05 | 93 | 1015.5 |
| 20260905143030 | 82 | 0.0 | 0.0 | 0.00 | 0.05 | 0.05 | 94 | 1015.5 | |
| 20260905142020 | 82 | 0.0 | 0.0 | 0.00 | 0.05 | 0.05 | 96 | 1015.6 | |
| 20260905141029 | 81 | 0.0 | 0.0 | 0.00 | 0.05 | 0.05 | 96 | 1015.4 | |
| 20260905140036 | 80 | 0.0 | 0.0 | 0.05 | 0.05 | 0.05 | 96 | 1015.4 | |
| 20260905135028 | 79 | 0.0 | 0.0 | 0.05 | 0.05 | 0.05 | 96 | 1015.4 | |
| 20260905134034 | 79 | 0.0 | 0.0 | 0.05 | 0.05 | 0.05 | 95 | 1015.5 | |
| 20260905133023 | 78 | 0.0 | 0.0 | 0.05 | 0.05 | 0.05 | 94 | 1015.5 | |
| 20260905132031 | 78 | 167 | 1.0 | 3.0 | 0.05 | 0.05 | 0.05 | 94 | 1015.5 |
| 20260905131021 | 79 | 0.0 | 0.0 | 0.05 | 0.05 | 0.05 | 93 | 1015.5 | |
| 20260905130029 | 79 | 57 | 2.0 | 4.0 | 0.00 | 0.00 | 0.00 | 91 | 1015.6 |
| 20260905125037 | 79 | 0.0 | 0.0 | 0.00 | 0.00 | 0.00 | 91 | 1015.5 | |
| 20260905124026 | 80 | 0.0 | 0.0 | 0.00 | 0.00 | 0.00 | 94 | 1015.4 | |
| 20260905123034 | 80 | 0.0 | 0.0 | 0.00 | 0.00 | 0.00 | 94 | 1015.3 | |
| 20260905122023 | 79 | 0.0 | 0.0 | 0.00 | 0.00 | 0.00 | 94 | 1015.3 | |
| 20260905121032 | 79 | 0.0 | 0.0 | 0.00 | 0.01 | 0.00 | 95 | 1015.3 | |
| 20260905120022 | 78 | 0.0 | 0.0 | 0.00 | 0.02 | 0.00 | 95 | 1015.3 | |
| 20260905115029 | 78 | 0.0 | 0.0 | 0.00 | 0.02 | 0.00 | 95 | 1015.2 | |
| 20260905114038 | 78 | 0.0 | 0.0 | 0.00 | 0.05 | 0.00 | 95 | 1015.1 | |
| 20260905113027 | 78 | 0.0 | 0.0 | 0.00 | 0.12 | 0.00 | 95 | 1014.9 | |
| 20260905112034 | 78 | 0.0 | 0.0 | 0.00 | 0.12 | 0.00 | 95 | 1014.6 | |
| 20260905111025 | 78 | 0.0 | 0.0 | 0.00 | 0.12 | 0.00 | 95 | 1014.4 | |
| 20260905110032 | 78 | 0.0 | 0.0 | 0.00 | 0.12 | 0.00 | 94 | 1014.3 | |
| 20260905105022 | 78 | 0.0 | 0.0 | 0.00 | 0.12 | 0.00 | 94 | 1014.3 | |
| 20260905104030 | 78 | 0.0 | 0.0 | 0.00 | 0.12 | 0.00 | 94 | 1014.3 | |
| 20260905103039 | 78 | 0.0 | 0.0 | 0.00 | 0.12 | 0.00 | 94 | 1014.2 | |
| 20260905102027 | 78 | 0.0 | 0.0 | 0.00 | 0.12 | 0.00 | 94 | 1014.3 | |
| 20260905101035 | 78 | 0.0 | 0.0 | 0.00 | 0.12 | 0.00 | 93 | 1014.3 | |
| 20260905100025 | 78 | 0.0 | 0.0 | 0.00 | 0.12 | 0.00 | 93 | 1014.5 | |
| 20260905095032 | 78 | 0.0 | 0.0 | 0.00 | 0.12 | 0.00 | 93 | 1014.6 | |
| 20260905094022 | 78 | 0.0 | 0.0 | 0.00 | 0.12 | 0.00 | 93 | 1014.5 | |
| 20260905093030 | 78 | 0.0 | 0.0 | 0.00 | 0.12 | 0.00 | 93 | 1014.6 | |
| 20260905092019 | 78 | 0.0 | 0.0 | 0.00 | 0.12 | 0.00 | 93 | 1014.5 | |
| 20260905091027 | 78 | 0.0 | 0.0 | 0.00 | 0.12 | 0.00 | 93 | 1014.5 | |
| 20260905090054 | 78 | 0.0 | 0.0 | 0.00 | 0.12 | 0.00 | 93 | 1014.6 | |
| 20260905085025 | 79 | 0.0 | 0.0 | 0.00 | 0.12 | 0.00 | 93 | 1014.4 | |
| 20260905084033 | 79 | 0.0 | 0.0 | 0.00 | 0.12 | 0.00 | 93 | 1014.4 | |
| 20260905083022 | 79 | 0.0 | 0.0 | 0.00 | 0.12 | 0.00 | 93 | 1014.4 | |
| 20260905082033 | 79 | 0.0 | 0.0 | 0.00 | 0.12 | 0.00 | 93 | 1014.2 | |
| 20260905081020 | 79 | 0.0 | 0.0 | 0.00 | 0.12 | 0.00 | 93 | 1014.1 | |
| 20260905080028 | 79 | 0.0 | 0.0 | 0.00 | 0.12 | 0.00 | 93 | 1014.1 | |
| 20260905075036 | 79 | 0.0 | 0.0 | 0.00 | 0.12 | 0.00 | 94 | 1014.1 | |
| 20260905074026 | 79 | 0.0 | 0.0 | 0.00 | 0.12 | 0.00 | 94 | 1014.2 | |
| 20260905073034 | 79 | 0.0 | 0.0 | 0.00 | 0.12 | 0.00 | 94 | 1014.3 | |
| 20260905072023 | 79 | 0.0 | 0.0 | 0.00 | 0.12 | 0.00 | 94 | 1014.3 | |
| 20260905071031 | 79 | 0.0 | 0.0 | 0.00 | 0.12 | 0.00 | 94 | 1014.2 | |
| 20260905070020 | 79 | 0.0 | 0.0 | 0.00 | 0.12 | 0.00 | 93 | 1014.2 | |
| 20260905065031 | 80 | 0.0 | 0.0 | 0.00 | 0.12 | 0.00 | 93 | 1014.1 | |
| 20260905064057 | 80 | 0.0 | 0.0 | 0.00 | 0.12 | 0.00 | 93 | 1014.2 | |
| 20260905063106 | 80 | 0.0 | 0.0 | 0.00 | 0.12 | 0.00 | 93 | 1014.1 | |
| 20260905062034 | 80 | 0.0 | 0.0 | 0.00 | 0.12 | 0.00 | 93 | 1014.2 | |
| 20260905061024 | 80 | 0.0 | 0.0 | 0.00 | 0.12 | 0.00 | 92 | 1014.2 | |
| 20260905060032 | 80 | 0.0 | 0.0 | 0.00 | 0.12 | 0.00 | 92 | 1014.2 | |
| 20260905055021 | 81 | 0.0 | 0.0 | 0.00 | 0.12 | 0.00 | 91 | 1014.4 | |
| 20260905054029 | 81 | 0.0 | 0.0 | 0.00 | 0.12 | 0.00 | 91 | 1014.4 | |
| 20260905053037 | 80 | 0.0 | 0.0 | 0.00 | 0.12 | 0.00 | 90 | 1014.4 | |
| 20260905052027 | 80 | 0.0 | 0.0 | 0.00 | 0.12 | 0.00 | 90 | 1014.6 | |
| 20260905051035 | 80 | 0.0 | 0.0 | 0.00 | 0.12 | 0.00 | 90 | 1014.6 | |
| 20260905050025 | 80 | 0.0 | 0.0 | 0.00 | 0.12 | 0.00 | 90 | 1014.6 | |
| 20260905045052 | 80 | 0.0 | 0.0 | 0.00 | 0.12 | 0.12 | 89 | 1014.5 | |
| 20260905044102 | 81 | 0.0 | 0.0 | 0.00 | 0.12 | 0.12 | 89 | 1014.6 | |
| 20260905043029 | 81 | 0.0 | 0.0 | 0.00 | 0.12 | 0.12 | 88 | 1014.6 | |
| 20260905042019 | 81 | 0.0 | 0.0 | 0.00 | 0.12 | 0.12 | 87 | 1014.6 | |
| 20260905041027 | 81 | 0.0 | 0.0 | 0.00 | 0.12 | 0.12 | 86 | 1014.8 | |
| 20260905040053 | 82 | 0.0 | 0.0 | 0.00 | 0.12 | 0.12 | 86 | 1015.0 | |
| 20260905035025 | 81 | 0.0 | 0.0 | 0.00 | 0.12 | 0.12 | 88 | 1015.0 | |
| 20260905034053 | 81 | 0.0 | 0.0 | 0.00 | 0.12 | 0.12 | 87 | 1015.0 | |
| 20260905033022 | 81 | 0.0 | 0.0 | 0.00 | 0.12 | 0.12 | 87 | 1015.2 | |
| 20260905032052 | 81 | 0.0 | 0.0 | 0.00 | 0.12 | 0.12 | 86 | 1015.2 | |
| 20260905031019 | 81 | 0.0 | 0.0 | 0.00 | 0.12 | 0.12 | 86 | 1015.2 | |
| 20260905030027 | 81 | 0.0 | 0.0 | 0.00 | 0.12 | 0.12 | 86 | 1015.4 | |
| 20260905025116 | 82 | 0.0 | 0.0 | 0.00 | 0.12 | 0.12 | 85 | 1015.4 | |
| 20260905024025 | 82 | 0.0 | 0.0 | 0.00 | 0.12 | 0.12 | 84 | 1015.4 | |
| 20260905023053 | 82 | 0.0 | 0.0 | 0.00 | 0.12 | 0.12 | 84 | 1015.3 | |
| 20260905022023 | 82 | 0.0 | 0.0 | 0.00 | 0.12 | 0.12 | 83 | 1015.3 | |
| 20260905021030 | 82 | 0.0 | 0.0 | 0.00 | 0.12 | 0.12 | 84 | 1015.1 | |
| 20260905020020 | 82 | 0.0 | 0.0 | 0.00 | 0.12 | 0.12 | 84 | 1015.1 | |
| 20260905015028 | 82 | 96 | 1.0 | 4.0 | 0.00 | 0.12 | 0.12 | 84 | 1015.1 |
| 20260905014056 | 83 | 0.0 | 0.0 | 0.00 | 0.12 | 0.12 | 84 | 1015.0 | |
| 20260905013028 | 83 | 0.0 | 0.0 | 0.00 | 0.12 | 0.12 | 84 | 1015.0 | |
| 20260905012033 | 84 | 0.0 | 0.0 | 0.00 | 0.12 | 0.12 | 83 | 1014.9 | |
| 20260905011023 | 84 | 0.0 | 0.0 | 0.00 | 0.12 | 0.12 | 83 | 1014.9 | |
| 20260905010031 | 84 | 0.0 | 0.0 | 0.00 | 0.12 | 0.12 | 82 | 1014.9 | |
| 20260905005040 | 85 | 0.0 | 0.0 | 0.00 | 0.12 | 0.12 | 81 | 1014.9 | |
| 20260905004028 | 86 | 64 | 0.0 | 1.0 | 0.00 | 0.12 | 0.12 | 79 | 1014.8 |
| 20260905003057 | 86 | 0.0 | 0.0 | 0.00 | 0.12 | 0.12 | 77 | 1014.7 | |
| 20260905002026 | 87 | 90 | 0.0 | 2.0 | 0.00 | 0.12 | 0.12 | 75 | 1014.9 |
| 20260905001034 | 88 | 0.0 | 0.0 | 0.00 | 0.12 | 0.12 | 73 | 1014.9 | |
| 20260905000023 | 90 | 0.0 | 0.0 | 0.00 | 0.12 | 0.12 | 70 | 1014.9 | |
| 20260904235032 | 92 | 49 | 1.0 | 2.0 | 0.00 | 0.12 | 0.12 | 68 | 1014.9 |
| 20260904234041 | 93 | 27 | 1.0 | 4.0 | 0.00 | 0.12 | 0.12 | 66 | 1014.6 |
| 20260904233029 | 93 | 12 | 1.0 | 4.0 | 0.00 | 0.12 | 0.12 | 68 | 1014.5 |
| 20260904232037 | 92 | 334 | 2.0 | 4.0 | 0.00 | 0.12 | 0.12 | 69 | 1014.6 |
| 20260904231026 | 91 | 2 | 1.0 | 3.0 | 0.00 | 0.12 | 0.12 | 70 | 1014.6 |
| 20260904230034 | 90 | 35 | 1.0 | 4.0 | 0.00 | 0.12 | 0.12 | 72 | 1014.7 |
| 20260904225024 | 90 | 40 | 2.0 | 3.0 | 0.00 | 0.12 | 0.12 | 72 | 1014.5 |
| 20260904224033 | 92 | 56 | 1.0 | 4.0 | 0.00 | 0.12 | 0.12 | 69 | 1014.4 |